User: anonymous   Login
Location: Indian Hills
(32.9760°N, 85.9450°W)
Time: 13:54:26
(UTC+00:00)
Language:

Cosmos 2237 Rocket - Orbit

View from above orbital plane
View from above orbital plane
View from above satellite
View from above satellite

Ground track
Ground track

The orbit data is extracted from the following two-line orbital elements,

1 22566U 93016B   20052.75229200 -.00000316 +00000-0 -13874-3 0  9994
2 22566 071.0080 170.7201 0007896 081.0564 279.1452 14.14964606389822
Epoch (UTC): 21 February 2020 18:03:18
Eccentricity: 0.0007896
inclination: 71.0080°
perigee height: 837 km
apogee height: 848 km
right ascension of ascending node: 170.7201°
argument of perigee: 81.0564°
revolutions per day: 14.14964606
mean anomaly at epoch: 279.1452°
orbit number at epoch: 38982

The dashed part of the orbit path shows where the satellite is in the earth's shadow,  

DLR